[[{"header":{"parameterUnit":"m.s-1","parameterCategory":1,"la1":30.2991,"la2":30.254,"lo1":-89.0895,"lo2":-89.0444,"dy":0.0017,"dx":0.0017,"nx":28,"ny":28,"refTime":"2025-11-24T03:00:00:Z","depth":0,"parameterNumber":2,"parameterNumberName":"U-component_of_WINDS"},"data":[0,0,0,0,0,0,0,0,0,0,0,0,0,0,0,0,0,0,0,0,0,0,0,0,0,0,0,0,0,0,0,0,0,0,0,0,0,0,0,0,0,0,0,0,0,0,0,0,0,0,0,0,0,0,0,0,0,0,-0.8456,-0.8456,0,-0.8538,-0.8538,-0.8539,-0.8612,-0.8613,-0.8613,-0.8614,-0.8701,-0.8703,-0.8704,0,0,0,0,0,0,0,0,0,0,0,0,0,-0.8363,-0.8365,-0.8455,-0.8456,-0.8457,-0.8537,-0.8539,-0.854,-0.8612,-0.8613,-0.8614,-0.8615,-0.8701,-0.8703,-0.8704,0,0,0,0,0,0,0,0,0,0,0,0,0,-0.842,-0.8365,-0.8455,-0.8503,-0.8508,-0.8537,-0.8539,-0.854,-0.8611,-0.8613,-0.8614,-0.8615,-0.87,-0.8702,-0.8705,-0.8694,0,0,-0.8712,-0.8713,0,0,0,0,0,0,0,0,-0.8417,-0.8424,-0.8495,-0.85,-0.8505,-0.8566,-0.8538,-0.8592,-0.8611,-0.8572,-0.8614,-0.8616,-0.8655,-0.8661,-0.8674,-0.8698,-0.8702,-0.8712,-0.8713,-0.8714,-0.8715,0,0,0,0,0,0,0,-0.8413,-0.842,-0.8488,-0.8496,-0.8502,-0.8521,-0.853,-0.8549,-0.8606,-0.8576,-0.8581,-0.859,-0.8659,-0.8672,-0.8677,-0.8703,-0.8712,-0.8714,-0.8715,-0.8716,-0.8722,-0.8721,0,0,0,0,0,0,-0.8401,-0.8417,-0.8485,-0.8491,-0.8463,-0.8522,-0.8532,-0.8545,-0.8606,-0.8616,-0.8589,-0.8593,-0.8667,-0.8674,-0.868,-0.8671,-0.8714,-0.8717,-0.8718,-0.8723,-0.8722,-0.872,0,0,0,0,0,0,-0.8399,-0.8407,-0.8482,-0.8455,-0.8466,-0.8522,-0.8536,-0.8546,-0.8559,-0.8616,-0.8626,-0.8591,-0.8668,-0.8677,-0.869,-0.8675,-0.8718,-0.872,-0.8725,-0.8723,-0.8721,-0.8652,0,0,0,0,0,0,-0.8396,-0.8405,-0.8401,-0.8454,-0.8467,-0.8489,-0.8535,-0.8547,-0.8563,-0.8569,-0.8621,-0.8631,-0.867,-0.8686,-0.8692,-0.8679,-0.8722,-0.8726,-0.8724,-0.8722,-0.8656,-0.8648,-0.8641,0,0,0,0,0,-0.8392,-0.838,-0.8401,-0.8409,-0.8463,-0.8488,-0.8496,-0.854,-0.8561,-0.8558,-0.8594,-0.8629,-0.8676,-0.8687,-0.8694,-0.8681,-0.8727,-0.8724,-0.8722,-0.8659,-0.8649,-0.8641,0,0,0,0,0,0,-0.8325,-0.8388,-0.8412,-0.8416,-0.8446,-0.85,-0.8498,-0.8529,-0.8555,-0.8559,-0.8615,-0.8626,-0.8632,-0.8659,-0.867,-0.8674,-0.8706,-0.8705,-0.8656,-0.8647,-0.864,-0.8633,-0.8724,0,0,0,0,0,-0.831,-0.8325,-0.8379,-0.8377,-0.8391,-0.8441,-0.8454,-0.8485,-0.852,-0.8533,-0.857,-0.8603,-0.8624,-0.8638,-0.8661,-0.866,-0.8672,-0.8655,-0.8648,-0.8642,-0.8639,-0.864,-0.8632,-0.8711,-0.8711,-0.8711,0,0,-0.8281,-0.8317,-0.8323,-0.8365,-0.8392,-0.8405,-0.8452,-0.8465,-0.8476,-0.8536,-0.8549,-0.8577,-0.8617,-0.8623,-0.8627,-0.8645,-0.862,-0.8638,-0.8633,-0.8634,-0.8636,-0.8628,-0.8622,-0.8709,-0.871,-0.871,0,0,-0.8233,-0.8262,-0.8263,-0.8289,-0.8329,-0.8362,-0.8362,-0.8412,-0.8432,-0.8447,-0.8491,-0.8506,-0.8543,-0.8569,-0.8587,-0.8548,-0.8581,-0.8554,-0.8516,-0.8515,-0.8509,-0.8504,-0.8488,-0.8482,-0.8552,-0.8552,-0.8552,0,-0.8192,-0.8213,-0.826,-0.827,-0.8286,-0.834,-0.8341,-0.8364,-0.841,-0.8421,-0.844,-0.8486,-0.8517,-0.8528,-0.8519,-0.8532,-0.8534,-0.8548,-0.8506,-0.8501,-0.8497,-0.8483,-0.8477,-0.8548,-0.8549,-0.8549,-0.8549,0,-0.8159,-0.8173,-0.817,-0.821,-0.8227,-0.8233,-0.8281,-0.8292,-0.8322,-0.8353,-0.8367,-0.8406,-0.8437,-0.8442,-0.8473,-0.8458,-0.8467,-0.8495,-0.8529,-0.8485,-0.8472,-0.8468,-0.8543,-0.8544,-0.8545,-0.8546,0,0,-0.8072,-0.8137,-0.8135,-0.8153,-0.8201,-0.8213,-0.8221,-0.825,-0.8258,-0.8289,-0.8296,-0.8325,-0.8351,-0.8371,-0.8405,-0.8405,-0.837,-0.8433,-0.8435,-0.8418,-0.8354,-0.8331,-0.8325,-0.8392,-0.8392,-0.8391,-0.835,0,-0.8031,-0.8046,-0.8088,-0.8091,-0.8104,-0.8155,-0.8162,-0.8192,-0.8221,-0.8237,-0.8271,-0.829,-0.8323,-0.8336,-0.8338,-0.8373,-0.8357,-0.8377,-0.84,-0.84,-0.8386,-0.8319,-0.8295,-0.8255,-0.8346,-0.8345,-0.8345,0,-0.7985,-0.801,-0.8013,-0.8059,-0.8066,-0.8071,-0.81,-0.8115,-0.815,-0.8172,-0.8194,-0.823,-0.8242,-0.8273,-0.8289,-0.8302,-0.8314,-0.8332,-0.8332,-0.8335,-0.8368,-0.8318,-0.8243,-0.8236,-0.8338,-0.8339,-0.8339,0,-0.7919,-0.7953,-0.7959,-0.7974,-0.8028,-0.803,-0.8052,-0.8089,-0.8103,-0.8129,-0.8139,-0.8167,-0.8182,-0.8202,-0.8246,-0.8265,-0.8256,-0.8292,-0.8274,-0.8273,-0.8269,-0.8268,-0.8194,-0.8279,-0.8279,-0.8279,-0.8279,0,-0.7868,-0.7868,-0.793,-0.7933,-0.7934,-0.7983,-0.7983,-0.8011,-0.8042,-0.8052,-0.8099,-0.8108,-0.8165,-0.818,-0.8215,-0.8222,-0.8229,-0.8246,-0.8255,-0.8241,-0.8239,-0.8249,-0.8252,-0.8278,-0.8278,-0.8278,-0.8279,0,-0.7794,-0.7835,-0.7845,-0.7894,-0.7907,-0.7905,-0.7948,-0.7953,-0.7985,-0.7997,-0.8003,-0.8054,-0.8074,-0.8119,-0.8153,-0.8176,-0.8174,-0.8191,-0.8161,-0.8166,-0.8145,-0.8146,-0.8073,-0.8066,-0.8157,-0.8156,-0.8155,0,-0.7758,-0.7759,-0.7807,-0.7816,-0.7837,-0.7852,-0.7866,-0.7914,-0.7927,-0.7966,-0.7967,-0.799,-0.8012,-0.8042,-0.8082,-0.8108,-0.8125,-0.8097,-0.8129,-0.8114,-0.8122,-0.8121,-0.8121,-0.809,-0.8089,-0.8088,-0.8087,0,-0.7689,-0.7709,-0.7728,-0.7752,-0.7768,-0.779,-0.7815,-0.782,-0.7874,-0.7887,-0.7907,-0.7924,-0.7956,-0.7979,-0.801,-0.8035,-0.8069,-0.8077,-0.8074,-0.8059,-0.8041,-0.8048,-0.814,-0.8078,-0.8079,-0.808,-0.808,-0.808,-0.7633,-0.7635,-0.7668,-0.7687,-0.771,-0.7732,-0.7739,-0.7771,-0.7788,-0.7817,-0.7845,-0.7863,-0.7897,-0.7942,-0.7964,-0.7979,-0.7997,-0.7993,-0.7991,-0.7989,-0.7982,-0.8039,-0.7985,-0.7986,-0.7986,-0.7986,-0.7986,0,-0.7565,-0.7589,-0.7605,-0.7637,-0.7652,-0.7682,-0.7711,-0.7721,-0.7735,-0.7764,-0.7783,-0.7806,-0.7828,-0.7869,-0.7895,-0.7898,-0.7915,-0.7903,-0.7903,-0.7908,-0.7966,-0.7965,-0.789,-0.789,-0.789,-0.789,-0.789,-0.789,-0.7531,-0.7536,-0.756,-0.7576,-0.7601,-0.7617,-0.763,-0.7651,-0.7674,-0.7696,-0.7714,-0.774,-0.7774,-0.7802,-0.7824,-0.7836,-0.7842,-0.7825,-0.7841,-0.7895,-0.7904,-0.7913,-0.7912,-0.7826,-0.7826,-0.7782,-0.7782,-0.7781]},{"header":{"parameterUnit":"m.s-1","parameterCategory":1,"la1":30.2991,"la2":30.254,"lo1":-89.0895,"lo2":-89.0444,"dy":0.0017,"dx":0.0017,"nx":28,"ny":28,"refTime":"2025-11-24T03:00:00:Z","depth":0,"parameterNumber":3,"parameterNumberName":"V-component_of_WINDS"},"data":[0,0,0,0,0,0,0,0,0,0,0,0,0,0,0,0,0,0,0,0,0,0,0,0,0,0,0,0,0,0,0,0,0,0,0,0,0,0,0,0,0,0,0,0,0,0,0,0,0,0,0,0,0,0,0,0,0,0,4.814,4.8141,0,4.823,4.8231,4.8232,4.8213,4.8211,4.8209,4.8208,4.8297,4.8301,4.8305,0,0,0,0,0,0,0,0,0,0,0,0,0,4.7949,4.7952,4.814,4.8141,4.8142,4.823,4.8231,4.8232,4.8213,4.8211,4.8209,4.8207,4.8296,4.83,4.8305,0,0,0,0,0,0,0,0,0,0,0,0,0,4.8034,4.7953,4.8139,4.8143,4.8144,4.8229,4.8231,4.8232,4.8213,4.8211,4.8208,4.8206,4.8294,4.83,4.8306,4.8392,0,0,4.8324,4.8326,0,0,0,0,0,0,0,0,4.8029,4.8041,4.8141,4.8143,4.8144,4.8208,4.8196,4.8286,4.8214,4.8187,4.8208,4.8205,4.8269,4.8277,4.8299,4.8396,4.84,4.8324,4.8328,4.833,4.8332,0,0,0,0,0,0,0,4.8024,4.8037,4.8175,4.8143,4.8145,4.8139,4.8149,4.8213,4.8241,4.8189,4.8188,4.8199,4.8269,4.8294,4.8301,4.8402,4.8324,4.8329,4.8333,4.8335,4.8576,4.8579,0,0,0,0,0,0,4.8017,4.8033,4.8172,4.8178,4.808,4.8145,4.8155,4.819,4.824,4.8245,4.8201,4.8198,4.8285,4.8294,4.8304,4.8411,4.833,4.8336,4.8339,4.8573,4.8577,4.858,0,0,0,0,0,0,4.8013,4.8029,4.8169,4.8105,4.8122,4.8151,4.819,4.8193,4.8217,4.8249,4.8254,4.8221,4.8283,4.8296,4.8371,4.8413,4.8339,4.8344,4.857,4.8574,4.8578,4.8623,0,0,0,0,0,0,4.8007,4.8028,4.8062,4.8106,4.8126,4.8235,4.8192,4.8196,4.8228,4.8224,4.8269,4.8274,4.8282,4.8362,4.8377,4.842,4.8349,4.8566,4.8572,4.8577,4.8618,4.8628,4.8637,0,0,0,0,0,4.8,4.8069,4.8063,4.808,4.8169,4.8237,4.8249,4.8258,4.8231,4.8265,4.8286,4.8273,4.8406,4.837,4.8387,4.8432,4.8564,4.857,4.8577,4.8614,4.8626,4.8637,0,0,0,0,0,0,4.8028,4.8075,4.8069,4.8155,4.8192,4.8234,4.8277,4.827,4.8315,4.831,4.8318,4.8329,4.8406,4.8426,4.8385,4.8519,4.8481,4.8491,4.8504,4.8516,4.8525,4.852,4.8353,0,0,0,0,0,4.8044,4.8097,4.8135,4.8207,4.8226,4.8248,4.8279,4.8282,4.8321,4.8337,4.8363,4.8401,4.8451,4.8484,4.8532,4.862,4.8631,4.866,4.8669,4.8677,4.8686,4.8736,4.875,4.8601,4.8601,4.8601,0,0,4.8077,4.811,4.8142,4.8213,4.8243,4.8297,4.8262,4.832,4.8361,4.8345,4.8419,4.844,4.8482,4.8565,4.8602,4.8584,4.8729,4.8685,4.8691,4.8696,4.8744,4.8758,4.8771,4.8605,4.8605,4.8604,0,0,4.8167,4.8196,4.8261,4.8291,4.8337,4.8352,4.8367,4.8411,4.8424,4.8499,4.8489,4.8536,4.8623,4.8654,4.8681,4.8784,4.8774,4.8799,4.885,4.8899,4.8911,4.8921,4.896,4.8973,4.8808,4.8808,4.8808,0,4.8203,4.8285,4.8294,4.8355,4.8386,4.8376,4.8441,4.847,4.8529,4.8551,4.853,4.864,4.8667,4.8758,4.8783,4.8805,4.8823,4.8795,4.8908,4.8919,4.8929,4.8966,4.898,4.8811,4.8811,4.881,4.881,0,4.8328,4.8385,4.8431,4.8491,4.8527,4.8589,4.8607,4.8643,4.8644,4.8661,4.8737,4.877,4.8826,4.8847,4.8847,4.8938,4.8926,4.8906,4.8868,4.8946,4.8981,4.8995,4.8815,4.8814,4.8813,4.8812,0,0,4.8437,4.8502,4.8519,4.8547,4.8597,4.8641,4.8703,4.8759,4.879,4.8831,4.8884,4.8958,4.8941,4.8972,4.8975,4.9018,4.91,4.8993,4.8995,4.9014,4.9205,4.9221,4.9237,4.9093,4.9096,4.9098,4.9202,0,4.8533,4.8645,4.8655,4.8754,4.8808,4.8799,4.8853,4.889,4.8907,4.8955,4.8973,4.9027,4.8999,4.9018,4.906,4.9081,4.9139,4.9073,4.9143,4.9145,4.9135,4.9255,4.9271,4.9368,4.9215,4.9218,4.9219,0,4.866,4.8707,4.8813,4.8858,4.888,4.8929,4.8982,4.9027,4.9069,4.9078,4.9114,4.9112,4.9176,4.9135,4.9223,4.9179,4.9208,4.9222,4.9226,4.9235,4.9188,4.9268,4.9399,4.9414,4.924,4.9239,4.9237,0,4.8732,4.8821,4.8897,4.892,4.8974,4.9009,4.9032,4.9071,4.9105,4.915,4.9172,4.9224,4.9253,4.9293,4.9306,4.9274,4.9395,4.9353,4.9405,4.9405,4.9432,4.9431,4.9572,4.9447,4.9447,4.9447,4.9447,0,4.884,4.8905,4.8931,4.8977,4.905,4.9061,4.9132,4.9154,4.9189,4.924,4.9234,4.9281,4.9294,4.9343,4.9353,4.9426,4.9438,4.9449,4.9451,4.9451,4.945,4.9471,4.9465,4.9451,4.945,4.9449,4.9449,0,4.8933,4.8953,4.9035,4.9079,4.9092,4.9144,4.9182,4.9227,4.9243,4.9307,4.9323,4.9349,4.9407,4.9423,4.9492,4.9499,4.9586,4.958,4.9573,4.9573,4.9625,4.9621,4.9786,4.9809,4.9668,4.9669,4.967,0,4.9002,4.9052,4.9103,4.9137,4.9163,4.9217,4.9252,4.9264,4.9301,4.9353,4.9391,4.9449,4.9496,4.9589,4.9614,4.9667,4.9665,4.9719,4.9673,4.9672,4.9668,4.9666,4.9672,4.9728,4.973,4.9731,4.9732,0,4.9121,4.9129,4.918,4.9235,4.9278,4.9321,4.9362,4.939,4.9408,4.9449,4.951,4.9546,4.9618,4.9676,4.973,4.9754,4.9747,4.9746,4.9762,4.9763,4.9757,4.9763,4.9599,4.9743,4.9742,4.9741,4.974,4.974,4.9206,4.9252,4.9295,4.9353,4.9385,4.9425,4.947,4.9493,4.9544,4.9605,4.9608,4.9674,4.9715,4.9787,4.9814,4.9866,4.9849,4.9871,4.9877,4.9882,4.9888,4.9747,4.9875,4.9875,4.9874,4.9874,4.9874,0,4.9328,4.9356,4.9408,4.9468,4.9514,4.9503,4.9549,4.9588,4.9646,4.9686,4.9733,4.9803,4.9859,4.9889,4.9945,4.9981,4.9979,4.9995,4.9994,5.0,4.9898,4.988,4.9996,4.9996,4.9996,4.9996,4.9996,4.9996,4.9397,4.9474,4.9487,4.958,4.9607,4.9673,4.97,4.9737,4.9769,4.9848,4.9895,4.9914,4.995,5.0009,5.0061,5.0068,5.009,5.0108,5.0114,5.0019,5.0007,4.9995,4.9978,5.0113,5.0113,5.0212,5.0213,5.0213]}]]